| time (UTC) | temp F | wind direction | speed MPH | gust MPH | rain 1hr in | rain 24hr in | rain mn in | humidity % | barometer mb |
| 20260505003030 | 65 | 161 | 0.0 | 0.0 | 0.00 | 0.00 | 0.00 | 51 | 1011.0 |
| 20260505001530 | 65 | 145 | 0.0 | 0.0 | 0.00 | 0.00 | 0.00 | 50 | 1010.8 |
| 20260505000029 | 65 | 192 | 0.0 | 0.0 | 0.00 | 0.00 | 0.00 | 49 | 1010.9 |
| 20260504234528 | 66 | 165 | 0.0 | 1.0 | 0.00 | 0.00 | 0.00 | 49 | 1010.8 |
| 20260504233029 | 66 | 173 | 0.0 | 0.0 | 0.00 | 0.00 | 0.00 | 47 | 1010.8 |
| 20260504231528 | 67 | 169 | 0.0 | 1.0 | 0.00 | 0.00 | 0.00 | 47 | 1010.8 |
| 20260504230028 | 67 | 153 | 0.0 | 0.0 | 0.00 | 0.00 | 0.00 | 47 | 1010.8 |
| 20260504224527 | 68 | 164 | 0.0 | 3.0 | 0.00 | 0.00 | 0.00 | 45 | 1010.8 |
| 20260504223026 | 68 | 150 | 0.0 | 1.0 | 0.00 | 0.00 | 0.00 | 43 | 1010.8 |
| 20260504221524 | 69 | 167 | 0.0 | 0.0 | 0.00 | 0.00 | 0.00 | 42 | 1010.7 |
| 20260504220024 | 69 | 163 | 0.0 | 0.0 | 0.00 | 0.00 | 0.00 | 44 | 1010.7 |
| 20260504214521 | 69 | 155 | 0.0 | 0.0 | 0.00 | 0.00 | 0.00 | 43 | 1010.8 |
| 20260504213023 | 70 | 136 | 0.0 | 1.0 | 0.00 | 0.00 | 0.00 | 42 | 1010.8 |
| 20260504211520 | 70 | 137 | 0.0 | 0.0 | 0.00 | 0.00 | 0.00 | 42 | 1010.8 |
| 20260504210023 | 71 | 153 | 0.0 | 1.0 | 0.00 | 0.00 | 0.00 | 42 | 1010.9 |
| 20260504204518 | 70 | 155 | 0.0 | 0.0 | 0.00 | 0.00 | 0.00 | 43 | 1011.1 |
| 20260504203018 | 70 | 149 | 0.0 | 0.0 | 0.00 | 0.00 | 0.00 | 41 | 1011.0 |
| 20260504201516 | 70 | 157 | 0.0 | 0.0 | 0.00 | 0.00 | 0.00 | 42 | 1011.2 |
| 20260504200027 | 70 | 192 | 0.0 | 0.0 | 0.00 | 0.00 | 0.00 | 44 | 1011.5 |
| 20260504194513 | 70 | 161 | 0.0 | 0.0 | 0.00 | 0.00 | 0.00 | 44 | 1011.7 |
| 20260504193012 | 71 | 170 | 0.0 | 0.0 | 0.00 | 0.00 | 0.00 | 45 | 1011.9 |
| 20260504191524 | 71 | 165 | 0.0 | 0.0 | 0.00 | 0.00 | 0.00 | 42 | 1012.1 |
| 20260504190011 | 71 | 175 | 0.0 | 1.0 | 0.00 | 0.00 | 0.00 | 42 | 1012.2 |
| 20260504184512 | 71 | 189 | 0.0 | 0.0 | 0.00 | 0.00 | 0.00 | 44 | 1012.6 |
| 20260504183007 | 71 | 184 | 0.0 | 0.0 | 0.00 | 0.00 | 0.00 | 40 | 1012.6 |
| 20260504181504 | 71 | 175 | 0.0 | 8.0 | 0.00 | 0.00 | 0.00 | 37 | 1012.6 |
| 20260504180001 | 71 | 144 | 0.0 | 1.0 | 0.00 | 0.00 | 0.00 | 38 | 1013.0 |
| 20260504174610 | 72 | 166 | 0.0 | 0.0 | 0.00 | 0.00 | 0.00 | 35 | 1013.1 |
| 20260504173104 | 71 | 240 | 0.0 | 3.0 | 0.00 | 0.00 | 0.00 | 41 | 1013.3 |
| 20260504171555 | 70 | 168 | 0.0 | 1.0 | 0.00 | 0.00 | 0.00 | 41 | 1013.4 |
| 20260504081523 | 41 | 336 | 0.0 | 0.0 | 0.00 | 0.00 | 0.00 | 76 | 1016.4 |
| 20260504050007 | 41 | 336 | 0.0 | 1.0 | 0.00 | 0.00 | 0.00 | 78 | 1016.7 |
| 20260504044512 | 42 | 336 | 0.0 | 0.0 | 0.00 | 0.00 | 0.00 | 75 | 1016.6 |
| 20260504043009 | 42 | 336 | 0.0 | 0.0 | 0.00 | 0.00 | 0.00 | 74 | 1016.7 |
| 20260504041504 | 42 | 336 | 0.0 | 0.0 | 0.00 | 0.00 | 0.00 | 75 | 1016.5 |
| 20260504040106 | 42 | 336 | 0.0 | 0.0 | 0.00 | 0.00 | 0.00 | 75 | 1016.5 |
| 20260504034613 | 43 | 336 | 0.0 | 0.0 | 0.00 | 0.00 | 0.00 | 75 | 1016.3 |
| 20260504033128 | 44 | 336 | 0.0 | 0.0 | 0.00 | 0.00 | 0.00 | 73 | 1016.1 |
| 20260504031603 | 44 | 336 | 0.0 | 0.0 | 0.00 | 0.00 | 0.00 | 71 | 1016.0 |
| 20260504030104 | 45 | 336 | 0.0 | 0.0 | 0.00 | 0.00 | 0.00 | 68 | 1016.0 |
| 20260504024557 | 46 | 336 | 0.0 | 0.0 | 0.00 | 0.00 | 0.00 | 65 | 1015.9 |
| 20260504023104 | 47 | 336 | 0.0 | 0.0 | 0.00 | 0.00 | 0.00 | 63 | 1016.0 |
| 20260504021557 | 48 | 336 | 0.0 | 0.0 | 0.00 | 0.00 | 0.00 | 61 | 1015.9 |
| 20260504020100 | 49 | 336 | 0.0 | 0.0 | 0.00 | 0.00 | 0.00 | 58 | 1015.9 |
| 20260504014555 | 49 | 336 | 0.0 | 0.0 | 0.00 | 0.00 | 0.00 | 54 | 1015.9 |
| 20260504013108 | 50 | 336 | 0.0 | 0.0 | 0.00 | 0.00 | 0.00 | 52 | 1015.8 |
| 20260504011556 | 51 | 336 | 0.0 | 0.0 | 0.00 | 0.00 | 0.00 | 49 | 1015.7 |
| 20260504010110 | 52 | 336 | 0.0 | 0.0 | 0.00 | 0.00 | 0.00 | 46 | 1015.5 |
| 20260504004617 | 53 | 336 | 0.0 | 0.0 | 0.00 | 0.00 | 0.00 | 45 | 1015.4 |